FW6831 Weather Reports


time (UTC)temp
C
wind
direction
speed
KPH
gust
KPH
rain 1hr
cm
rain 24hr
cm
rain mn
cm
humidity
%
barometer
mb
20260505111552 18 0 0.0 0.0 0.00 0.00 0.00 94 1018.6
20260505111045 18 0 0.0 1.6 0.00 0.00 0.00 95 1018.6
20260505110544 18 0 0.0 1.6 0.00 0.00 0.00 95 1018.7
20260505102043 19 0 0.0 1.6 0.00 0.00 0.00 93 1018.2
20260505101552 19 0 0.0 0.0 0.00 0.00 0.00 93 1018.2
20260505101045 19 0 0.0 0.0 0.00 0.00 0.00 93 1018.3
20260505100546 19 0 0.0 1.6 0.00 0.00 0.00 93 1018.1
20260505100053 19 0 0.0 1.6 0.00 0.00 0.00 93 1018.0
20260505095545 19 0 0.0 1.6 0.00 0.00 0.00 92 1017.9
20260505095042 20 0 0.0 0.0 0.00 0.00 0.00 92 1017.9
20260505094601 20 0 0.0 0.0 0.00 0.00 0.00 92 1017.8
20260505094044 20 0 0.0 0.0 0.00 0.00 0.00 92 1017.9
20260505093547 20 0 0.0 0.0 0.00 0.00 0.00 91 1017.9
20260505093057 20 0 0.0 0.0 0.00 0.00 0.00 91 1018.0
20260505092545 20 0 0.0 3.2 0.00 0.00 0.00 91 1018.1
20260505092044 20 0 0.0 3.2 0.00 0.00 0.00 90 1018.1
20260505091601 20 308 0.0 3.2 0.00 0.00 0.00 90 1018.0
20260505091044 20 0 0.0 1.6 0.00 0.00 0.00 90 1017.8
20260505090543 20 0 0.0 0.0 0.00 0.00 0.00 90 1017.9
20260505090104 20 0 0.0 0.0 0.00 0.00 0.00 89 1017.8
20260505085544 20 0 0.0 0.0 0.00 0.00 0.00 89 1017.8
20260505085043 21 0 0.0 0.0 0.00 0.00 0.00 89 1017.8
20260505084558 21 0 0.0 0.0 0.00 0.00 0.00 88 1017.7
20260505084043 21 0 0.0 1.6 0.00 0.00 0.00 88 1017.6
20260505083544 21 0 0.0 1.6 0.00 0.00 0.00 87 1017.5
20260505083100 21 0 0.0 3.2 0.00 0.00 0.00 88 1017.2
20260505082543 21 314 0.0 3.2 0.00 0.00 0.00 87 1017.1
20260505082044 21 263 0.0 1.6 0.00 0.00 0.00 87 1017.1
20260505081601 21 0 0.0 1.6 0.00 0.00 0.00 87 1017.1
20260505081045 21 0 0.0 1.6 0.00 0.00 0.00 86 1016.7
20260505080546 21 0 0.0 1.6 0.00 0.00 0.00 86 1016.6
20260505080053 21 0 0.0 1.6 0.00 0.00 0.00 86 1016.7
20260505075544 21 0 0.0 1.6 0.00 0.00 0.00 86 1016.6
20260505075046 21 0 0.0 1.6 0.00 0.00 0.00 86 1016.5
20260505074554 21 0 0.0 1.6 0.00 0.00 0.00 85 1016.6
20260505074046 21 0 0.0 1.6 0.00 0.00 0.00 85 1016.7
20260505073545 22 0 0.0 1.6 0.00 0.00 0.00 84 1016.8
20260505073104 22 0 0.0 1.6 0.00 0.00 0.00 84 1016.5
20260505072544 22 0 0.0 1.6 0.00 0.00 0.00 83 1016.4
20260505072044 22 0 0.0 1.6 0.00 0.00 0.00 83 1016.4
20260505071556 22 0 0.0 1.6 0.00 0.00 0.00 82 1016.4
20260505071044 22 0 0.0 1.6 0.00 0.00 0.00 82 1016.4
20260505070545 22 0 0.0 1.6 0.00 0.00 0.00 81 1016.3
20260505070148 22 0 0.0 8.0 0.00 0.00 0.00 81 1016.3
20260505065544 22 0 0.0 8.0 0.00 0.00 0.00 81 1016.2
20260505065046 22 0 0.0 6.4 0.00 0.00 0.00 80 1016.2
20260505064555 23 0 0.0 6.4 0.00 0.00 0.00 80 1016.3
20260505064043 23 0 0.0 6.4 0.00 0.00 0.00 80 1016.1
20260505063543 23 107 0.0 6.4 0.00 0.00 0.00 80 1016.1
20260505063055 23 340 1.6 6.4 0.00 0.00 0.00 79 1016.1
20260505062545 23 316 0.0 4.8 0.00 0.00 0.00 79 1016.2
20260505062045 23 0 0.0 6.4 0.00 0.00 0.00 79 1016.3
20260505061553 23 115 0.0 6.4 0.00 0.00 0.00 79 1016.2
20260505061046 23 0 1.6 6.4 0.00 0.00 0.00 78 1016.0
20260505060543 23 0 0.0 6.4 0.00 0.00 0.00 78 1016.0
20260505060055 23 0 1.6 8.0 0.00 0.00 0.00 77 1015.9
20260505055545 23 0 3.2 8.0 0.00 0.00 0.00 77 1016.0
20260505055044 24 111 1.6 8.0 0.00 0.00 0.00 76 1016.0
20260505054557 24 65 1.6 8.0 0.00 0.00 0.00 76 1015.8
20260505054043 24 84 1.6 12.9 0.00 0.00 0.00 76 1015.9
20260505053545 25 90 3.2 14.5 0.00 0.00 0.00 75 1015.7
20260505053056 25 111 4.8 14.5 0.00 0.00 0.00 73 1015.6
20260505052543 26 66 1.6 9.7 0.00 0.00 0.00 72 1015.8
20260505052043 26 0 0.0 1.6 0.00 0.00 0.00 71 1015.8
20260505051552 26 32 0.0 1.6 0.00 0.00 0.00 70 1015.9
20260505051044 26 0 0.0 1.6 0.00 0.00 0.00 69 1015.8
20260505050545 26 81 0.0 4.8 0.00 0.00 0.00 69 1016.0
20260505041553 27 326 0.0 3.2 0.00 0.00 0.00 66 1015.7
20260505041045 27 319 0.0 3.2 0.00 0.00 0.00 65 1015.6
20260505040544 27 0 1.6 3.2 0.00 0.00 0.00 66 1015.6
20260505040057 26 0 0.0 4.8 0.00 0.00 0.00 68 1015.5
20260505035544 26 274 0.0 4.8 0.00 0.00 0.00 68 1015.6
20260505035043 26 217 1.6 4.8 0.00 0.00 0.00 66 1015.7
20260505034553 27 302 0.0 3.2 0.00 0.00 0.00 66 1015.7
20260505034044 26 333 0.0 3.2 0.00 0.00 0.00 68 1015.7
20260505033542 26 0 1.6 3.2 0.00 0.00 0.00 68 1015.6
20260505033048 26 304 1.6 9.7 0.00 0.00 0.00 67 1015.7
20260505032544 26 0 3.2 9.7 0.00 0.00 0.00 69 1015.7
20260505032041 26 162 3.2 9.7 0.00 0.00 0.00 70 1015.8
20260505031557 26 202 0.0 4.8 0.00 0.00 0.00 70 1015.7
20260505031045 26 120 1.6 4.8 0.00 0.00 0.00 70 1015.7
20260505030543 26 226 0.0 4.8 0.00 0.00 0.00 71 1015.8
20260505030058 26 309 1.6 4.8 0.00 0.00 0.00 71 1015.9
20260505025544 25 340 1.6 4.8 0.00 0.00 0.00 72 1015.9
20260505025044 26 151 1.6 6.4 0.00 0.00 0.00 73 1016.0
20260505024553 25 179 1.6 8.0 0.00 0.00 0.00 73 1016.2
20260505024045 26 169 3.2 8.0 0.00 0.00 0.00 72 1016.1
20260505023542 26 83 1.6 4.8 0.00 0.00 0.00 72 1016.2
20260505023051 26 0 0.0 6.4 0.00 0.00 0.00 72 1016.4
20260505022542 25 291 1.6 6.4 0.00 0.00 0.00 73 1016.6
20260505022047 25 322 1.6 3.2 0.00 0.00 0.00 71 1016.6
20260505021549 25 278 0.0 3.2 0.00 0.00 0.00 73 1016.7
20260505021044 25 200 1.6 4.8 0.00 0.00 0.00 74 1016.9
20260505020548 25 175 0.0 4.8 0.00 0.00 0.00 76 1016.9
20260505020054 24 180 0.0 4.8 0.00 0.00 0.00 76 1016.6
20260505015544 24 0 1.6 8.0 0.00 0.00 0.00 76 1016.8
20260505015045 24 127 3.2 8.0 0.00 0.00 0.00 75 1017.0
20260505014603 25 185 4.8 8.0 0.00 0.00 0.00 76 1017.2
20260505014049 24 0 0.0 4.8 0.00 0.00 0.00 77 1017.2
20260505013545 25 0 1.6 4.8 0.00 0.00 0.00 76 1017.2
20260505013051 25 112 1.6 6.4 0.00 0.00 0.00 75 1017.3
20260505012545 24 263 0.0 6.4 0.00 0.00 0.00 78 1017.4
20260505012045 24 244 0.0 6.4 0.00 0.00 0.00 78 1017.5
20260505011552 24 0 0.0 6.4 0.00 0.00 0.00 78 1017.6
20260505011045 24 0 0.0 6.4 0.00 0.00 0.00 78 1017.6
20260505010545 25 0 1.6 6.4 0.00 0.00 0.00 76 1017.8
20260505010050 25 0 0.0 0.0 0.00 0.00 0.00 77 1017.9
20260505005542 25 0 0.0 0.0 0.00 0.00 0.00 80 1018.0
20260505005042 24 0 0.0 0.0 0.00 0.00 0.00 82 1018.0
20260505004556 23 0 0.0 3.2 0.00 0.00 0.00 85 1018.0
20260505004041 23 0 0.0 3.2 0.00 0.00 0.00 83 1018.1
20260505003541 23 236 0.0 11.3 0.00 0.00 0.00 83 1018.2
20260505003046 23 0 3.2 11.3 0.00 0.00 0.00 83 1018.1
20260505002546 23 176 1.6 8.0 0.00 0.00 0.00 83 1018.2
20260505002044 23 0 0.0 4.8 0.00 0.00 0.00 84 1018.3
20260505001553 23 0 0.0 0.0 0.00 0.00 0.00 84 1018.3
20260505001043 22 0 0.0 3.2 0.00 0.00 0.00 87 1018.3
20260505000542 22 0 0.0 4.8 0.00 0.00 0.00 86 1018.3
20260505000057 22 208 0.0 8.0 0.00 0.00 0.00 84 1018.4
20260504235545 23 174 1.6 8.0 0.00 0.00 0.00 85 1018.4
20260504235044 23 0 0.0 1.6 0.00 0.00 0.00 86 1018.4
20260504234551 22 0 0.0 1.6 0.00 0.00 0.00 87 1018.4
20260504234041 22 168 0.0 1.6 0.00 0.00 0.00 88 1018.5
20260504233542 22 135 0.0 4.8 0.00 0.00 0.00 89 1018.6
20260504233052 22 0 1.6 4.8 0.00 0.00 0.00 89 1018.6
20260504232542 22 226 1.6 4.8 0.00 0.00 0.00 90 1018.6
20260504232046 22 269 0.0 6.4 0.00 0.00 0.00 92 1018.7
20260504231553 21 137 0.0 6.4 0.00 0.00 0.00 92 1018.6
20260504231044 21 193 1.6 6.4 0.00 0.00 0.00 92 1018.7
20260504230546 21 179 1.6 6.4 0.00 0.00 0.00 92 1018.6
20260504230052 21 238 1.6 6.4 0.00 0.00 0.00 93 1018.6
20260504225544 21 216 0.0 3.2 0.00 0.00 0.00 94 1018.7
20260504225046 21 195 1.6 3.2 0.00 0.00 0.00 95 1018.6
20260504224552 21 183 0.0 3.2 0.00 0.00 0.00 96 1018.6
20260504224043 20 210 0.0 4.8 0.00 0.00 0.00 97 1018.7
20260504223543 20 0 1.6 4.8 0.00 0.00 0.00 97 1018.7
20260504223053 20 208 0.0 1.6 0.00 0.00 0.00 98 1018.6
20260504222547 20 273 0.0 0.0 0.00 0.00 0.00 99 1018.6
20260504222044 20 0 0.0 0.0 0.00 0.00 0.00 99 1018.6
20260504221548 20 0 0.0 0.0 0.00 0.00 0.00 99 1018.6
20260504221043 20 0 0.0 0.0 0.00 0.00 0.00 99 1018.7
20260504220543 20 0 0.0 0.0 0.00 0.00 0.00 99 1018.6
20260504220055 19 0 0.0 0.0 0.00 0.00 0.00 99 1018.5
20260504215544 18 0 0.0 0.0 0.00 0.03 0.00 99 1018.5
20260504215042 18 0 0.0 0.0 0.00 0.03 0.00 99 1018.5
20260504214557 18 0 0.0 0.0 0.00 0.03 0.00 99 1018.5
20260504214044 18 0 0.0 0.0 0.00 0.03 0.00 98 1018.5
20260504213543 17 0 0.0 0.0 0.00 0.03 0.00 98 1018.5
20260504213055 18 0 0.0 0.0 0.00 0.03 0.00 98 1018.5
20260504212542 17 0 0.0 0.0 0.00 0.03 0.00 98 1018.4
20260504212045 17 0 0.0 0.0 0.00 0.03 0.00 99 1018.5
20260504211548 17 0 0.0 0.0 0.00 0.03 0.00 99 1018.4
20260504211043 17 0 0.0 0.0 0.00 0.03 0.00 98 1018.4
20260504210543 17 0 0.0 0.0 0.00 0.03 0.00 98 1018.4
20260504205543 17 0 0.0 0.0 0.00 0.05 0.00 98 1018.3
20260504205041 17 0 0.0 0.0 0.00 0.05 0.00 98 1018.2
20260504204601 17 0 0.0 0.0 0.00 0.05 0.00 99 1018.2
20260504204041 17 0 0.0 0.0 0.00 0.05 0.00 98 1018.1
20260504203543 17 0 0.0 0.0 0.00 0.05 0.00 98 1018.1
20260504203122 17 0 0.0 0.0 0.00 0.05 0.00 98 1018.1
20260504202542 17 0 0.0 0.0 0.00 0.05 0.00 98 1018.1
20260504202044 17 0 0.0 0.0 0.00 0.05 0.00 98 1018.1
20260504201550 16 0 0.0 0.0 0.00 0.05 0.00 98 1018.2
20260504201043 16 0 0.0 0.0 0.00 0.05 0.00 98 1018.0
20260504200543 16 0 0.0 0.0 0.00 0.05 0.00 98 1018.0
20260504200051 16 0 0.0 0.0 0.00 0.05 0.00 98 1017.9
20260504195542 16 0 0.0 0.0 0.00 0.05 0.00 98 1018.0
20260504195043 17 0 0.0 0.0 0.00 0.05 0.00 98 1017.7
20260504194550 17 0 0.0 0.0 0.00 0.05 0.00 98 1017.8
20260504194042 17 0 0.0 0.0 0.00 0.05 0.00 98 1017.6
20260504193546 16 0 0.0 0.0 0.00 0.05 0.00 98 1017.7
20260504193058 16 0 0.0 0.0 0.00 0.05 0.00 98 1017.6
20260504192546 16 0 0.0 0.0 0.00 0.05 0.00 98 1017.5
20260504192044 16 0 0.0 0.0 0.00 0.05 0.00 98 1017.4
20260504191558 16 0 0.0 0.0 0.00 0.05 0.00 98 1017.3
20260504191043 16 0 0.0 0.0 0.00 0.05 0.00 98 1017.3
20260504190544 16 0 0.0 0.0 0.00 0.05 0.00 98 1017.5
20260504190054 16 0 0.0 0.0 0.00 0.05 0.00 98 1017.3
20260504185543 16 0 0.0 0.0 0.00 0.05 0.00 98 1017.3
20260504185043 17 0 0.0 0.0 0.00 0.05 0.00 98 1017.2
20260504184556 17 0 0.0 0.0 0.00 0.05 0.00 98 1017.4
20260504184043 17 0 0.0 0.0 0.00 0.05 0.00 98 1017.4
20260504183544 17 0 0.0 0.0 0.00 0.05 0.00 98 1017.1
20260504183058 16 0 0.0 0.0 0.00 0.05 0.00 98 1017.2
20260504182543 16 0 0.0 0.0 0.00 0.05 0.00 98 1017.3
20260504182043 16 0 0.0 0.0 0.00 0.05 0.00 98 1017.3
20260504181554 16 0 0.0 0.0 0.00 0.05 0.00 97 1017.1
20260504181041 16 0 0.0 0.0 0.00 0.05 0.00 98 1017.0
20260504180543 17 0 0.0 0.0 0.00 0.05 0.00 98 1016.9
20260504180106 17 0 0.0 0.0 0.00 0.05 0.00 98 1016.8
20260504175543 16 0 0.0 0.0 0.00 0.05 0.00 98 1016.8
20260504175043 17 0 0.0 0.0 0.00 0.05 0.00 98 1016.9
20260504174550 16 0 0.0 0.0 0.00 0.05 0.00 98 1016.8
20260504174043 16 0 0.0 0.0 0.00 0.05 0.00 98 1017.0
20260504173542 16 0 0.0 0.0 0.00 0.05 0.00 98 1017.0
20260504173105 16 0 0.0 0.0 0.00 0.05 0.00 98 1017.1
20260504172542 17 0 0.0 0.0 0.00 0.05 0.00 98 1017.2
20260504172042 16 0 0.0 0.0 0.00 0.05 0.00 98 1017.1
20260504171601 16 0 0.0 0.0 0.00 0.05 0.00 98 1017.2
20260504171043 16 0 0.0 0.0 0.00 0.03 0.00 98 1017.2
20260504170543 16 0 0.0 0.0 0.00 0.03 0.00 98 1017.1
20260504151044 17 0 0.0 0.0 0.00 0.03 0.00 97 1017.8
20260504150546 17 0 0.0 0.0 0.00 0.03 0.00 97 1017.8
20260504141044 17 0 0.0 0.0 0.00 0.03 0.00 97 1018.1
20260504140547 17 0 0.0 0.0 0.00 0.03 0.00 97 1018.1
20260504130545 18 0 0.0 0.0 0.00 0.03 0.03 97 1018.6